• In Portugal
  • List of Countries
  • For 7 days
  • Water Temperature
  • Satellite Maps
  • Weather Map
  • Weather Widgets
  • user-avatar
    Login

    Hourly Weather Jalalabad

    Today, 18 July, Wednesday

    Time Temperature Precipitation Wind Pressure Humidity
    00:00 +34°C° 2.4 mm 2 mps 702 mmHg 67%
    01:00 +34°C° 2.4 mm 2 mps 702 mmHg 70%
    02:00 +32°C° 2.4 mm 1 mps 702 mmHg 73%
    03:00 +32°C° 1.6 mm 1 mps 702 mmHg 74%
    04:00 +31°C° 1.6 mm 1 mps 702 mmHg 76%
    05:00 +29°C° 1.6 mm 0 mps 702 mmHg 77%
    06:00 +32°C° 0.7 mm 1 mps 702 mmHg 73%
    07:00 +32°C° 0.7 mm 1 mps 702 mmHg 69%
    08:00 +33°C° 0.7 mm 1 mps 702 mmHg 64%
    09:00 +35°C° 0.2 mm 2 mps 702 mmHg 59%
    10:00 +36°C° 0.2 mm 2 mps 702 mmHg 53%
    11:00 +37°C° 0.2 mm 2 mps 702 mmHg 47%
    12:00 +38°C° 0.4 mm 2 mps 702 mmHg 44%
    13:00 +39°C° 0.4 mm 3 mps 702 mmHg 41%
    14:00 +40°C° 0.4 mm 3 mps 701 mmHg 38%
    15:00 +41°C° 0.7 mm 4 mps 701 mmHg 39%
    16:00 +41°C° 0.7 mm 4 mps 701 mmHg 39%
    17:00 +41°C° 0.7 mm 4 mps 701 mmHg 40%
    18:00 +40°C° 1.1 mm 4 mps 701 mmHg 45%
    19:00 +38°C° 1.1 mm 4 mps 701 mmHg 51%
    20:00 +37°C° 1.1 mm 3 mps 702 mmHg 56%
    21:00 +36°C° 1.5 mm 3 mps 702 mmHg 60%
    22:00 +35°C° 1.5 mm 2 mps 702 mmHg 63%
    23:00 +35°C° 1.5 mm 2 mps 702 mmHg 67%

    Tomorrow, 19 July, Thursday

    Time Temperature Precipitation Wind Pressure Humidity
    00:00 +33°C° 1 mm 1 mps 702 mmHg 69%
    01:00 +33°C° 1 mm 1 mps 702 mmHg 72%
    02:00 +32°C° 1 mm 1 mps 702 mmHg 74%
    03:00 +32°C° 0.5 mm 1 mps 702 mmHg 76%
    04:00 +29°C° 0.5 mm 0 mps 702 mmHg 77%
    05:00 +29°C° 0.5 mm 0 mps 702 mmHg 79%
    06:00 +32°C° 0.2 mm 1 mps 702 mmHg 74%
    07:00 +32°C° 0.2 mm 1 mps 702 mmHg 69%
    08:00 +33°C° 0.2 mm 1 mps 702 mmHg 65%
    09:00 +34°C° 0 mm 1 mps 702 mmHg 57%
    10:00 +37°C° 0 mm 2 mps 702 mmHg 50%
    11:00 +38°C° 0 mm 2 mps 702 mmHg 43%
    12:00 +39°C° 0.1 mm 2 mps 702 mmHg 40%
    13:00 +40°C° 0.1 mm 2 mps 701 mmHg 37%
    14:00 +42°C° 0.1 mm 3 mps 701 mmHg 34%
    15:00 +42°C° 0.3 mm 3 mps 701 mmHg 34%
    16:00 +42°C° 0.3 mm 3 mps 701 mmHg 34%
    17:00 +42°C° 0.3 mm 4 mps 701 mmHg 34%
    18:00 +40°C° 0.5 mm 3 mps 701 mmHg 39%
    19:00 +39°C° 0.5 mm 3 mps 701 mmHg 43%
    20:00 +38°C° 0.5 mm 2 mps 701 mmHg 48%
    21:00 +37°C° 0.8 mm 2 mps 702 mmHg 51%
    22:00 +35°C° 0.8 mm 1 mps 702 mmHg 54%
    23:00 +35°C° 0.8 mm 1 mps 702 mmHg 57%

    Day after tomorrow, 20 July, Friday

    Time Temperature Precipitation Wind Pressure Humidity
    00:00 +34°C° 0.5 mm 1 mps 702 mmHg 59%
    01:00 +34°C° 0.5 mm 1 mps 702 mmHg 61%
    02:00 +31°C° 0.5 mm 0 mps 701 mmHg 63%
    03:00 +31°C° 0.1 mm 0 mps 701 mmHg 64%
    04:00 +30°C° 0.1 mm 0 mps 701 mmHg 66%
    05:00 +30°C° 0.1 mm 0 mps 701 mmHg 67%
    06:00 +32°C° 0 mm 1 mps 701 mmHg 64%
    07:00 +33°C° 0 mm 1 mps 701 mmHg 60%
    08:00 +34°C° 0 mm 1 mps 701 mmHg 57%
    09:00 +35°C° 0 mm 1 mps 701 mmHg 49%
    10:00 +36°C° 0 mm 1 mps 701 mmHg 42%
    11:00 +39°C° 0 mm 2 mps 701 mmHg 35%
    12:00 +40°C° 0 mm 2 mps 701 mmHg 32%
    13:00 +41°C° 0 mm 2 mps 701 mmHg 29%
    14:00 +42°C° 0 mm 2 mps 700 mmHg 26%
    15:00 +43°C° 0.2 mm 3 mps 700 mmHg 26%
    16:00 +43°C° 0.2 mm 3 mps 700 mmHg 27%
    17:00 +43°C° 0.2 mm 4 mps 700 mmHg 27%
    18:00 +42°C° 0.3 mm 3 mps 700 mmHg 33%
    19:00 +40°C° 0.3 mm 3 mps 700 mmHg 38%
    20:00 +38°C° 0.3 mm 2 mps 701 mmHg 44%
    21:00 +38°C° 0.2 mm 2 mps 701 mmHg 47%
    22:00 +36°C° 0.2 mm 1 mps 701 mmHg 50%
    23:00 +35°C° 0.2 mm 1 mps 701 mmHg 53%

    21 July, Saturday

    Time Temperature Precipitation Wind Pressure Humidity
    00:00 +35°C° 0.3 mm 1 mps 701 mmHg 56%
    01:00 +34°C° 0.3 mm 1 mps 700 mmHg 58%
    02:00 +33°C° 0.3 mm 1 mps 700 mmHg 61%
    03:00 +33°C° 0.3 mm 1 mps 700 mmHg 64%
    04:00 +32°C° 0.3 mm 1 mps 700 mmHg 66%
    05:00 +29°C° 0.3 mm 0 mps 700 mmHg 69%
    06:00 +32°C° 0 mm 1 mps 700 mmHg 63%
    07:00 +33°C° 0 mm 1 mps 700 mmHg 57%
    08:00 +34°C° 0 mm 1 mps 701 mmHg 51%
    09:00 +36°C° 0 mm 1 mps 700 mmHg 43%
    10:00 +37°C° 0 mm 1 mps 700 mmHg 35%
    11:00 +40°C° 0 mm 1 mps 700 mmHg 28%
    12:00 +41°C° 0 mm 2 mps 700 mmHg 26%
    13:00 +42°C° 0 mm 2 mps 700 mmHg 24%
    14:00 +44°C° 0 mm 3 mps 699 mmHg 23%
    15:00 +44°C° 0.1 mm 3 mps 699 mmHg 24%
    16:00 +44°C° 0.1 mm 4 mps 699 mmHg 24%
    17:00 +44°C° 0.1 mm 4 mps 699 mmHg 25%
    18:00 +42°C° 0.2 mm 3 mps 700 mmHg 30%
    19:00 +40°C° 0.2 mm 3 mps 700 mmHg 36%
    20:00 +39°C° 0.2 mm 2 mps 700 mmHg 41%
    21:00 +38°C° 0.3 mm 2 mps 700 mmHg 45%
    22:00 +37°C° 0.3 mm 2 mps 701 mmHg 49%
    23:00 +36°C° 0.3 mm 2 mps 701 mmHg 53%

    22 July, Sunday

    Time Temperature Precipitation Wind Pressure Humidity
    00:00 +35°C° 0.7 mm 1 mps 700 mmHg 58%
    01:00 +34°C° 0.7 mm 1 mps 700 mmHg 62%
    02:00 +33°C° 0.7 mm 1 mps 700 mmHg 66%
    03:00 +33°C° 0.2 mm 1 mps 700 mmHg 69%
    04:00 +32°C° 0.2 mm 1 mps 700 mmHg 71%
    05:00 +32°C° 0.2 mm 1 mps 700 mmHg 74%
    06:00 +32°C° 0 mm 1 mps 700 mmHg 70%
    07:00 +33°C° 0 mm 1 mps 700 mmHg 65%
    08:00 +34°C° 0 mm 1 mps 700 mmHg 60%
    09:00 +35°C° 0 mm 1 mps 700 mmHg 51%
    10:00 +37°C° 0 mm 1 mps 700 mmHg 42%
    11:00 +39°C° 0 mm 1 mps 699 mmHg 33%
    12:00 +40°C° 0 mm 2 mps 699 mmHg 30%
    13:00 +41°C° 0 mm 2 mps 699 mmHg 26%
    14:00 +43°C° 0 mm 2 mps 698 mmHg 23%
    15:00 +44°C° 0 mm 3 mps 698 mmHg 23%
    16:00 +44°C° 0 mm 3 mps 698 mmHg 22%
    17:00 +44°C° 0 mm 3 mps 698 mmHg 22%
    18:00 +43°C° 0 mm 3 mps 698 mmHg 27%
    19:00 +41°C° 0 mm 2 mps 698 mmHg 32%
    20:00 +39°C° 0 mm 2 mps 699 mmHg 37%
    21:00 +38°C° 0.1 mm 2 mps 699 mmHg 41%
    22:00 +38°C° 0.1 mm 2 mps 699 mmHg 44%
    23:00 +36°C° 0.1 mm 1 mps 700 mmHg 48%

    23 July, Monday

    Time Temperature Precipitation Wind Pressure Humidity
    00:00 +35°C° 0.2 mm 1 mps 699 mmHg 51%
    01:00 +35°C° 0.2 mm 1 mps 699 mmHg 55%
    02:00 +34°C° 0.2 mm 1 mps 699 mmHg 58%
    03:00 +33°C° 0.2 mm 1 mps 699 mmHg 61%
    04:00 +33°C° 0.2 mm 1 mps 699 mmHg 63%
    05:00 +32°C° 0.2 mm 1 mps 699 mmHg 66%
    06:00 +33°C° 0 mm 1 mps 699 mmHg 61%
    07:00 +34°C° 0 mm 1 mps 699 mmHg 57%
    08:00 +35°C° 0 mm 1 mps 700 mmHg 52%
    09:00 +36°C° 0 mm 1 mps 700 mmHg 44%
    10:00 +37°C° 0 mm 1 mps 699 mmHg 36%
    11:00 +40°C° 0 mm 1 mps 699 mmHg 28%
    12:00 +41°C° 0 mm 2 mps 699 mmHg 26%
    13:00 +42°C° 0 mm 2 mps 699 mmHg 24%
    14:00 +44°C° 0 mm 3 mps 698 mmHg 22%
    15:00 +44°C° 0 mm 3 mps 698 mmHg 23%
    16:00 +44°C° 0 mm 3 mps 698 mmHg 24%
    17:00 +44°C° 0 mm 4 mps 698 mmHg 24%
    18:00 +43°C° 0.2 mm 3 mps 699 mmHg 29%
    19:00 +42°C° 0.2 mm 3 mps 700 mmHg 34%
    20:00 +39°C° 0.2 mm 2 mps 700 mmHg 39%
    21:00 +38°C° 0.5 mm 2 mps 701 mmHg 43%
    22:00 +38°C° 0.5 mm 2 mps 701 mmHg 47%
    23:00 +37°C° 0.5 mm 2 mps 701 mmHg 51%
    Show more